SCP
0 0 0 0 0 0 0 0 0 0 0 0 0 0 0 0 0 0 0 0 0 0 0 0 0 0 0 0 0 0 0 0 0 0 0 0 0 0 0 0 0 0 0
0 0 0 0 0 0 0 0 0 0 0 0 0 0 0 0 0 0 0 0 0 0 0 0 0 0 0 0 0 0 0 0 0 0 0 0 0 0 0 0 0 0 0
0 0 0 0 0 0 0 0 0 0 0 0 0 0 0 0 0 0 0 0 0 0 0 0 0 0 0 0 0 0 0 0 0 0 0 0 0 0 0 0 0 0 0
0 0 0 0 0 0 0 0 0 0 0 0 0 0 0 0 0 0 0 0 0 0 0 0 0 0 0 0 0 0 0 0 0 0 0 0 0 0 0 0 0 0 0
0 0 0 0 0 0 0 0 0 0 0 0 0 0 0 0 0 0 0 0 0 0 0 0 0 0 0 0 0 0 0 0 0 0 0 0 0 0 0 0 0 0 0
0 0 0 0 0 0 0 0 0 0 0 0 0 0 0 0 0 0 0 0 0 0 0 0 0 0 0 0 0 0 0 0 0 0 0 0 0 0 0 0 0 0 0
0 0 0 0 0 0 0 0 0 0 0 0 0 0 0 0 0 0 0 0 0 0 0 0 0 0 0 0 0 0 0 0 0 0 0 0 0 0 0 0 0 0 0
0 0 0 0 0 0 0 0 0 0 0 0 0 0 0 0 0 0 0 0 0 0 0 0 0 0 0 0 0 0 0 0 0 0 0 0 0 0 0 0 0 0 0
0 0 0 0 0 0 0 0 0 0 0 0 0 0 0 0 0 0 0 0 0 0 0 0 0 0 0 0 0 0 0 0 0 0 0 0 0 0 0 0 0 0 0
0 0 0 0 0 0 0 0 0 0 0 0 0 0 0 0 0 0 0 0 0 0 0 0 0 0 0 0 0 0 0 0 0 0 0 0 0 0 0 0 0 0 0
0 0 0 0 0 0 0 0 0 0 0 0 0 0 0 0 0 0 0 0 0 0 0 0 0 0 0 0 0 0 0 0 0 0 0 0 0 0 0 0 0 0 0
0 0 0 0 0 0 0 0 0 0 0 0 0 0 0 0 0 0 0 0 0 0 0 0 0 0 0 0 0 0 0 0 0 0 0 0 0 0 0 0 0 0 0
0 0 0 0 0 0 0 0 0 0 0 0 0 0 0 0 0 0 0 0 0 0 0 0 0 0 0 0 0 0 0 0 0 0 0 0 0 0 0 0 0 0 0
0 0 0 0 0 0 0 0 0 0 0 0 0 0 0 0 0 0 0 0 0 0 0 0 0 0 0 0 0 0 0 0 0 0 0 0 0 0 0 0 0 0 0
0 0 0 0 0 0 0 0 0 0 0 0 0 0 0 0 0 0 0 0 0 0 0 0 0 0 0 0 0 0 0 0 0 0 0 0 0 0 0 0 0 0 0
0 0 0 0 0 0 0 0 0 0 0 0 0 0 0 0 0 0 0 0 0 0 0 0 0 0 0 0 0 0 0 0 0 0 0 0 0 0 0 0 0 0 0
0 0 0 0 0 0 0 0 0 0 0 0 0 0 0 0 0 0 0 0 0 0 0 0 0 0 0 0 0 0 0 0 0 0 0 0 0 0 0 0 0 0 0
0 0 0 0 0 0 0 0 0 0 0 0 0 0 0 0 0 0 0 0 0 0 0 0 0 0 0 0 0 0 0 0 0 0 0 0 0 0 0 0 0 0 0
0 0 0 0 0 0 0 0 0 0 0 0 0 0 0 0 0 0 0 0 0 0 0 0 0 0 0 0 0 0 0 0 0 0 0 0 0 0 0 0 0 0 0
0 0 0 0 0 0 0 0 0 0 0 0 0 0 0 0 0 0 0 0 0 0 0 0 0 0 0 0 0 0 0 0 0 0 0 0 0 0 0 0 0 0 0
0 0 0 0 0 0 0 0 0 0 0 0 0 0 0 0 0 0 0 0 0 0 0 0 0 0 0 0 0 0 0 0 0 0 0 0 0 0 0 0 0 0 0
0 0 0 0 0 0 0 0 0 0 0 0 0 0 0 0 0 0 0 0 0 0 0 0 0 0 0 0 0 0 0 0 0 0 0 0 0 0 0 0 0 0 0
0 0 0 0 0 0 0 0 0 0 0 0 0 0 0 0 0 0 0 0 0 0 0 0 0 0 0 0 0 0 0 0 0 0 0 0 0 0 0 0 0 0 0
0 0 0 0 0 0 0 0 0 0 0 0 0 0 0 0 0 0 0 0 0 0 0 0 0 0 0 0 0 0 0 0 0 0 0 0 0 0 0 0 0 0 0
0 0 0 0 0 0 0 0 0 0 0 0 0 0 0 0 0 0 0 0 0 0 0 0 0 0 0 0 0 0 0 0 0 0 0 0 0 0 0 0 0 0 0
0 0 0 0 0 0 0 0 0 0 0 0 0 0 0 0 0 0 0 0 0 0 0 0 0 0 0 0 0 0 0 0 0 0 0 0 0 0 0 0 0 0 0
Wind_Speed
2 3 3 3 3 3 3 3 3 5 5 5 5 5 5 6 5 5 5 10 10 9 8 9 9 8 7 7 7 7 7 7 7 7 7 7 7 7 7 7 6 6 6
3 3 3 3 3 3 3 3 4 4 4 4 5 5 5 5 5 5 5 7 10 10 9 9 9 9 8 8 7 7 7 6 6 6 6 6 6 7 7 7 7 7 7
3 3 3 3 3 3 3 3 4 4 4 4 5 5 5 5 5 5 5 4 5 8 10 9 9 8 8 7 7 7 7 7 6 6 7 7 7 8 7 7 7 7 7
3 3 2 3 3 2 2 2 2 3 4 4 4 4 4 4 5 5 4 4 4 4 7 9 9 9 8 7 7 7 7 7 7 7 7 7 7 7 7 7 7 7 6
3 3 3 2 3 2 2 2 3 3 4 4 4 3 4 4 4 4 5 5 5 4 4 6 7 8 8 8 7 6 7 7 6 7 7 7 7 7 7 7 7 6 6
3 3 2 3 2 2 2 3 4 3 3 3 3 4 3 3 3 4 4 4 4 5 5 4 3 5 7 8 7 7 7 6 6 6 6 6 6 6 6 6 6 6 6
2 3 2 2 2 2 2 3 3 4 3 2 2 3 3 4 4 3 3 3 4 4 4 4 4 3 3 6 7 7 6 5 6 6 6 6 6 6 5 5 5 5 5
2 2 2 2 2 2 2 2 2 1 2 0 0 1 2 3 3 3 2 2 3 3 4 5 4 4 4 3 6 8 6 6 6 5 5 5 5 5 5 5 5 5 5
2 2 2 2 2 2 2 1 2 1 1 1 1 2 1 1 1 2 3 2 3 2 3 3 4 4 4 3 4 6 7 6 6 6 5 5 5 5 5 5 6 5 5
1 1 2 2 2 1 2 1 1 1 1 1 1 1 3 2 1 2 2 2 2 3 3 2 3 3 3 3 4 7 7 6 5 5 5 5 4 4 5 5 5 6 7
1 2 1 2 2 1 2 1 1 1 1 1 0 1 1 0 3 2 1 1 1 1 2 2 2 2 3 3 3 6 6 6 5 5 4 4 3 4 4 4 5 5 5
2 2 2 2 2 2 2 2 2 2 1 1 1 1 1 1 1 1 1 1 1 1 1 1 1 1 2 2 4 6 5 5 5 5 5 4 4 4 4 4 3 3 5
2 3 3 3 2 3 3 2 3 2 3 2 2 1 1 1 1 1 1 1 1 1 1 1 1 1 1 1 2 3 3 4 4 4 4 4 4 4 4 4 3 3 5
2 2 3 3 3 3 3 3 3 3 3 3 3 2 2 1 2 2 2 2 2 2 2 1 1 1 0 0 3 1 2 4 3 3 4 4 4 4 4 4 5 5 4
2 3 3 4 4 4 4 3 3 3 3 3 3 3 2 2 2 2 2 3 3 2 1 1 1 1 0 0 1 1 1 4 2 3 3 3 3 3 4 4 4 4 4
2 3 4 4 4 4 4 3 3 3 3 3 2 3 2 2 2 2 2 3 3 3 2 0 1 2 1 1 1 1 1 3 1 1 2 2 2 2 2 2 3 3 2
3 4 4 3 4 4 4 4 4 4 4 4 4 3 3 3 2 2 2 2 2 3 2 1 1 1 2 2 1 1 1 1 1 2 1 1 1 1 1 1 2 2 2
4 4 4 4 3 4 4 4 5 5 5 4 4 4 3 2 3 2 2 3 3 3 3 2 1 2 2 2 2 2 2 1 1 2 2 1 0 0 1 1 0 1 1
4 4 4 4 4 4 4 5 5 6 6 5 5 4 4 4 4 3 3 3 2 3 3 3 2 1 2 2 2 2 2 1 2 2 3 3 2 2 1 2 1 1 1
4 4 4 4 4 4 4 5 5 5 5 5 5 4 4 4 4 4 3 4 3 3 3 3 3 2 2 2 2 2 2 2 2 2 1 2 2 3 3 3 3 2 2
4 4 4 4 4 3 3 4 4 5 5 5 5 5 4 3 2 3 3 4 4 3 3 3 3 3 3 3 2 2 2 2 2 2 2 2 2 3 3 5 5 5 4
4 4 4 4 4 3 2 3 4 5 5 5 5 5 4 5 5 5 5 4 4 4 4 4 4 4 4 3 2 3 3 3 3 2 3 3 2 3 3 3 3 5 6
4 4 4 4 5 3 4 4 5 5 5 5 5 4 3 3 5 5 6 7 6 6 6 6 5 5 4 3 4 4 4 4 4 2 3 3 3 3 3 2 3 5 6
4 4 4 5 4 3 4 4 5 6 5 5 5 5 5 5 4 4 5 6 6 5 5 6 6 5 5 4 4 5 5 4 4 2 3 4 3 3 3 3 4 6 6
4 4 4 4 5 4 4 5 5 4 4 5 5 5 5 5 2 3 5 6 5 4 3 3 4 3 2 2 3 4 4 4 4 3 4 4 3 3 4 4 3 6 6
4 4 4 4 4 4 3 4 6 4 4 4 4 4 3 3 2 4 6 6 6 5 4 4 5 5 6 6 7 7 5 5 4 4 4 4 3 3 4 3 3 4 5
Wind_Direction
76 85 82 76 76 78 85 80 76 78 75 67 64 64 66 65 65 71 73 65 58 60 67 70 69 69 73 76 77 85 85 81 75 71 69 67 67 69 72 70 72 74 71
79 79 79 79 76 74 73 83 87 87 82 78 73 69 68 73 69 71 71 79 69 58 58 64 65 66 70 73 76 82 84 82 77 73 70 68 67 71 69 66 67 68 68
79 86 79 85 85 86 84 78 91 94 94 91 83 73 67 63 66 62 58 58 75 72 59 56 56 59 65 68 73 75 77 74 74 72 72 72 72 71 67 65 67 69 68
78 81 85 91 92 84 84 87 97 101 96 88 81 76 76 73 66 64 63 60 55 59 69 59 49 48 52 60 68 71 75 75 75 74 75 76 75 73 69 66 66 68 68
74 84 83 86 95 95 91 89 87 88 93 87 82 75 72 70 66 66 66 58 56 52 57 77 66 51 46 50 60 68 73 78 78 76 76 75 75 74 70 67 66 65 69
75 84 98 96 92 96 88 87 89 89 88 92 87 79 73 75 68 62 60 62 55 50 45 45 62 74 59 45 45 56 63 74 80 80 78 76 73 72 69 66 63 66 72
85 87 88 96 89 94 92 93 94 100 96 94 109 106 103 83 72 70 59 57 62 50 48 49 42 39 69 69 48 44 50 64 74 76 77 76 76 73 67 63 62 66 75
83 97 107 108 113 107 107 103 108 109 101 58 312 208 154 139 103 79 77 64 56 59 49 46 49 46 36 46 60 48 47 55 67 71 76 76 74 72 70 64 63 56 69
99 105 105 111 120 132 120 131 146 161 146 111 351 319 304 86 108 112 71 71 61 53 53 48 46 41 44 48 53 58 47 47 57 63 70 72 73 76 73 74 63 61 83
134 134 138 139 135 131 135 160 155 170 187 154 107 353 352 11 265 147 149 91 58 55 52 55 49 44 42 54 63 49 47 42 48 55 61 67 72 70 69 69 67 69 85
162 163 174 174 168 168 172 163 158 184 195 201 194 170 97 330 280 275 181 168 148 103 68 53 60 46 45 50 51 55 46 39 41 45 49 53 63 62 67 71 75 76 86
179 183 189 193 200 199 194 189 191 194 215 218 245 240 256 257 259 271 245 206 209 110 111 73 54 57 45 54 59 51 43 39 41 39 36 37 45 55 62 64 75 90 94
184 195 202 209 213 212 206 210 213 212 212 221 240 258 271 277 284 265 256 240 226 200 187 183 128 90 50 40 75 52 61 47 40 38 37 35 35 39 42 34 61 101 106
213 207 213 217 218 223 215 211 232 228 231 223 227 231 238 247 254 257 264 254 235 219 212 186 140 146 103 60 72 290 96 69 42 42 40 37 37 37 38 35 61 82 92
228 219 211 215 215 214 221 218 226 229 237 239 236 231 232 229 238 249 252 261 271 257 241 185 172 151 192 76 91 233 97 79 49 42 39 41 49 48 47 44 60 71 73
223 222 216 211 208 207 209 213 226 235 233 230 240 245 239 234 232 236 245 255 270 283 278 275 195 158 157 202 167 265 79 109 89 49 37 51 51 53 54 48 55 62 65
222 218 215 207 203 202 202 200 217 220 227 225 218 222 224 223 221 222 234 242 249 263 263 259 207 168 188 214 189 236 233 222 170 138 104 66 49 60 81 69 57 55 58
223 217 212 210 210 210 207 205 211 218 223 228 226 224 226 213 222 228 229 232 235 245 247 245 218 204 221 230 224 236 245 243 243 148 159 179 174 122 180 168 98 82 81
223 215 216 215 219 220 218 218 220 222 222 226 231 231 232 226 223 219 226 231 234 232 237 238 233 207 230 225 231 237 244 250 253 188 189 201 205 213 215 213 210 214 208
225 221 219 219 224 226 227 228 231 233 231 230 229 231 236 234 235 232 227 227 228 224 221 231 228 216 221 216 227 239 247 233 253 243 225 220 208 216 224 221 212 213 220
230 225 222 222 223 227 233 243 234 234 236 233 229 229 229 240 274 264 254 240 230 228 224 228 230 226 222 211 228 235 247 256 260 249 259 249 231 233 219 217 214 212 218
225 222 225 221 224 219 206 246 257 235 234 236 236 231 219 212 217 222 232 243 249 242 241 235 236 235 238 229 231 238 244 251 256 229 255 258 242 247 246 233 189 201 217
220 221 224 224 224 208 190 212 240 248 238 242 243 236 227 220 223 229 213 210 220 232 248 256 250 248 249 237 230 234 241 251 265 258 251 257 241 250 250 243 195 208 218
215 217 219 221 223 215 196 213 233 239 240 239 240 244 237 226 213 236 235 226 226 222 230 242 252 259 261 250 240 246 251 254 269 254 242 263 249 254 255 246 205 215 225
217 214 217 222 223 211 195 212 232 232 238 237 235 238 245 242 184 230 238 234 233 231 221 244 283 288 298 268 249 239 232 236 251 238 221 253 258 257 254 244 216 207 226
213 212 214 224 226 226 188 205 238 234 239 240 239 235 225 247 225 218 233 233 237 239 236 225 230 231 232 218 216 231 231 237 251 247 208 236 254 253 255 235 238 225 223